TSC5015 EVRA-CYOW

Flight info

Callsign TSC5015
Flight time N/A
Altitude 34000
Route LAPSA Y130 MILTA DCT REPKU DCT LAPOT P600 KLONN/N0471F360 DCT GINGA DCT GOMUP DCT SUNOT/M082F370 NATA HOIST/N0472F380 N750B YBC Q910 IMORI Q921 AGLUK Q941 TAMKO Q852 MEBOK DCT ALSET RIVER4
Aircraft A333/H-SADE1E2E3GHIJ1J3J5M1P2RWXY/LB2D1

Departure

Time N/A
Airport Riga International Airport (EVRA)

Arrival

Time 2026-05-05 21:09
Airport Ottawa Macdonald-Cartier International Airport (CYOW)
Time Latitude Longitude Altitude Speed Heading
2026-05-05 14:03 58.71446 6.25678 31909 ft 398 kts 266°
2026-05-05 14:03 58.71243 6.20375 31916 ft 398 kts 266°
2026-05-05 14:03 58.70831 6.09737 31938 ft 399 kts 266°
2026-05-05 14:04 58.70410 5.99132 31961 ft 399 kts 266°
2026-05-05 14:04 58.69984 5.88566 31976 ft 399 kts 266°
2026-05-05 14:05 58.69547 5.77940 31983 ft 400 kts 266°
2026-05-05 14:05 58.69102 5.67364 31984 ft 400 kts 266°
2026-05-05 14:06 58.68647 5.56775 31990 ft 400 kts 266°
2026-05-05 14:06 58.68183 5.46181 31995 ft 400 kts 266°
2026-05-05 14:07 58.67711 5.35575 31999 ft 399 kts 266°
2026-05-05 14:07 58.67230 5.24984 31999 ft 399 kts 265°
2026-05-05 14:08 58.66739 5.14330 31997 ft 400 kts 265°
2026-05-05 14:08 58.66242 5.03770 31998 ft 401 kts 265°
2026-05-05 14:09 58.65734 4.93149 31996 ft 400 kts 265°
2026-05-05 14:09 58.65214 4.82509 31996 ft 401 kts 266°
2026-05-05 14:10 58.64691 4.71885 31998 ft 402 kts 265°
2026-05-05 14:10 58.64154 4.61255 31999 ft 402 kts 265°
2026-05-05 14:11 58.63578 4.50608 32000 ft 403 kts 264°
2026-05-05 14:11 58.62667 4.40741 32260 ft 407 kts 259°
2026-05-05 14:12 58.61996 4.35508 32538 ft 407 kts 257°
2026-05-05 14:12 58.61241 4.30286 32871 ft 405 kts 257°
2026-05-05 14:12 58.60503 4.25138 33166 ft 404 kts 256°
2026-05-05 14:12 58.59754 4.19931 33433 ft 404 kts 256°
2026-05-05 14:13 58.59007 4.14766 33700 ft 403 kts 256°
2026-05-05 14:13 58.58265 4.09673 33941 ft 403 kts 256°
2026-05-05 14:13 58.56748 3.99314 34001 ft 403 kts 256°
2026-05-05 14:14 58.55233 3.89043 34005 ft 403 kts 256°
2026-05-05 14:14 58.53708 3.78784 34006 ft 404 kts 256°
2026-05-05 14:15 58.52167 3.68465 34009 ft 404 kts 256°
2026-05-05 14:15 58.50625 3.58218 34009 ft 404 kts 256°
2026-05-05 14:16 58.49055 3.47845 34009 ft 405 kts 256°
2026-05-05 14:16 58.47493 3.37593 34005 ft 405 kts 256°
2026-05-05 14:17 58.45915 3.27294 34007 ft 405 kts 255°
2026-05-05 14:17 58.44333 3.17033 34011 ft 405 kts 255°
2026-05-05 14:18 58.42739 3.06745 34009 ft 405 kts 256°
2026-05-05 14:18 58.41144 2.96531 34002 ft 405 kts 255°
2026-05-05 14:19 58.39621 2.86247 34006 ft 404 kts 258°
2026-05-05 14:19 58.38535 2.75716 34009 ft 404 kts 263°
2026-05-05 14:20 58.37800 2.65190 34014 ft 404 kts 263°
2026-05-05 14:20 58.37065 2.54603 34011 ft 404 kts 263°
2026-05-05 14:21 58.36326 2.44035 34019 ft 404 kts 263°
2026-05-05 14:21 58.35581 2.33468 34020 ft 404 kts 263°
2026-05-05 14:22 58.34822 2.22825 34027 ft 405 kts 263°
2026-05-05 14:22 58.34060 2.12248 34026 ft 405 kts 263°
2026-05-05 14:23 58.33292 2.01701 34024 ft 405 kts 263°
2026-05-05 14:23 58.32511 1.91125 34035 ft 405 kts 263°
2026-05-05 14:24 58.31721 1.80533 34042 ft 405 kts 263°
2026-05-05 14:24 58.30920 1.69923 34041 ft 405 kts 263°
2026-05-05 14:25 58.30111 1.59346 34040 ft 406 kts 263°
2026-05-05 14:25 58.29292 1.48741 34043 ft 406 kts 263°
2026-05-05 14:26 58.28463 1.38120 34046 ft 406 kts 263°
2026-05-05 14:26 58.27627 1.27548 34046 ft 407 kts 262°
2026-05-05 14:27 58.26780 1.16915 34049 ft 407 kts 262°
2026-05-05 14:27 58.25927 1.06324 34054 ft 407 kts 262°
2026-05-05 14:28 58.25059 0.95693 34056 ft 407 kts 262°
2026-05-05 14:28 58.24185 0.85084 34051 ft 408 kts 262°
2026-05-05 14:29 58.23318 0.74677 34050 ft 408 kts 262°
2026-05-05 14:29 58.22422 0.64029 34055 ft 408 kts 262°
2026-05-05 14:30 58.21528 0.53514 34057 ft 409 kts 262°
2026-05-05 14:30 58.20856 0.45678 34054 ft 409 kts 262°
2026-05-05 14:31 58.20133 0.37306 34054 ft 409 kts 262°
2026-05-05 14:31 58.19702 0.32358 34056 ft 409 kts 261°
2026-05-05 14:32 58.18359 0.17065 34056 ft 410 kts 261°
2026-05-05 14:33 58.17026 0.02101 34056 ft 410 kts 261°
2026-05-05 14:34 58.14689 -0.23641 34058 ft 411 kts 261°
2026-05-05 14:34 58.13706 -0.34299 34061 ft 411 kts 261°
2026-05-05 14:35 58.12716 -0.44946 34068 ft 411 kts 261°
2026-05-05 14:35 58.11715 -0.55591 34074 ft 412 kts 261°
2026-05-05 14:36 58.10709 -0.66201 34075 ft 412 kts 260°
2026-05-05 14:36 58.09690 -0.76843 34072 ft 412 kts 260°
2026-05-05 14:37 58.08660 -0.87488 34072 ft 412 kts 260°
2026-05-05 14:37 58.07621 -0.98144 34073 ft 413 kts 260°
2026-05-05 14:38 58.06571 -1.08809 34078 ft 414 kts 260°
2026-05-05 14:38 58.05513 -1.19457 34081 ft 415 kts 260°
2026-05-05 14:39 58.04447 -1.30086 34083 ft 415 kts 260°
2026-05-05 14:39 58.03371 -1.40728 34085 ft 415 kts 260°
2026-05-05 14:40 58.02278 -1.51436 34085 ft 415 kts 260°
2026-05-05 14:40 58.01182 -1.62085 34088 ft 416 kts 260°
2026-05-05 14:41 58.00075 -1.72730 34094 ft 416 kts 259°
2026-05-05 14:41 57.98952 -1.83453 34095 ft 416 kts 259°
2026-05-05 14:42 57.97828 -1.94101 34095 ft 416 kts 259°
2026-05-05 14:42 57.96698 -2.04712 34099 ft 416 kts 259°
2026-05-05 14:43 57.95551 -2.15392 34098 ft 416 kts 259°
2026-05-05 14:43 57.94398 -2.26030 34100 ft 417 kts 259°
2026-05-05 14:44 57.93230 -2.36702 34099 ft 417 kts 259°
2026-05-05 14:44 57.92061 -2.47312 34097 ft 417 kts 259°
2026-05-05 14:45 57.90877 -2.57980 34103 ft 418 kts 259°
2026-05-05 14:45 57.89685 -2.68623 34102 ft 418 kts 259°
2026-05-05 14:46 57.88474 -2.79350 34096 ft 418 kts 259°
2026-05-05 14:46 57.87259 -2.90022 34100 ft 418 kts 259°
2026-05-05 14:47 57.86035 -3.00677 34099 ft 419 kts 259°
2026-05-05 14:47 57.84794 -3.11417 34100 ft 422 kts 259°
2026-05-05 14:48 57.83540 -3.22177 34100 ft 423 kts 259°
2026-05-05 14:48 57.82274 -3.32950 34101 ft 424 kts 259°
2026-05-05 14:49 57.81001 -3.43696 34099 ft 423 kts 259°
2026-05-05 14:49 57.79711 -3.54499 34100 ft 424 kts 259°
2026-05-05 14:50 57.78417 -3.65255 34100 ft 424 kts 258°
2026-05-05 14:50 57.77105 -3.76076 34099 ft 425 kts 258°
2026-05-05 14:51 57.75786 -3.86866 34099 ft 424 kts 258°
2026-05-05 14:51 57.74468 -3.97571 34097 ft 424 kts 258°
2026-05-05 14:52 57.73126 -4.08399 34092 ft 425 kts 258°
2026-05-05 14:52 57.71790 -4.19087 34088 ft 425 kts 258°
2026-05-05 14:53 57.70437 -4.29825 34080 ft 426 kts 258°
2026-05-05 14:53 57.69069 -4.40604 34080 ft 426 kts 258°
2026-05-05 14:54 57.67694 -4.51357 34079 ft 427 kts 258°
2026-05-05 14:54 57.66323 -4.62006 34070 ft 428 kts 258°
2026-05-05 14:55 57.64930 -4.72741 34059 ft 427 kts 257°
2026-05-05 14:55 57.63527 -4.83489 34051 ft 427 kts 257°
2026-05-05 14:56 57.62117 -4.94199 34052 ft 427 kts 257°
2026-05-05 14:56 57.60700 -5.04884 34054 ft 427 kts 257°
2026-05-05 14:57 57.59273 -5.15571 34057 ft 427 kts 257°
2026-05-05 14:57 57.57839 -5.26243 34065 ft 427 kts 257°
2026-05-05 14:58 57.56387 -5.36969 34069 ft 427 kts 257°
2026-05-05 14:58 57.54938 -5.47594 34065 ft 427 kts 257°
2026-05-05 14:59 57.53470 -5.58287 34062 ft 428 kts 257°
2026-05-05 14:59 57.51986 -5.69017 34069 ft 429 kts 257°
2026-05-05 15:00 57.50753 -5.77874 34069 ft 428 kts 257°
2026-05-05 15:00 57.49009 -5.90324 34080 ft 429 kts 257°
2026-05-05 15:01 57.47498 -6.01032 34087 ft 429 kts 257°
2026-05-05 15:01 57.45981 -6.11711 34081 ft 429 kts 257°
2026-05-05 15:02 57.44450 -6.22409 34076 ft 429 kts 257°
2026-05-05 15:02 57.42919 -6.33045 34068 ft 429 kts 257°
2026-05-05 15:03 57.41370 -6.43728 34081 ft 429 kts 257°
2026-05-05 15:03 57.39822 -6.54330 34099 ft 429 kts 257°
2026-05-05 15:04 57.38256 -6.64992 34109 ft 429 kts 257°
2026-05-05 15:04 57.36694 -6.75546 34109 ft 430 kts 256°
2026-05-05 15:05 57.34315 -6.91504 34115 ft 431 kts 256°
2026-05-05 15:06 57.32713 -7.02159 34127 ft 431 kts 256°
2026-05-05 15:06 57.31107 -7.12777 34132 ft 431 kts 256°
2026-05-05 15:07 57.29488 -7.23407 34133 ft 431 kts 256°
2026-05-05 15:07 57.27873 -7.33941 34127 ft 431 kts 256°
2026-05-05 15:08 57.26225 -7.44635 34126 ft 432 kts 256°
2026-05-05 15:08 57.24581 -7.55225 34123 ft 432 kts 256°
2026-05-05 15:09 57.22921 -7.65848 34127 ft 432 kts 255°
2026-05-05 15:09 57.21254 -7.76456 34124 ft 432 kts 255°
2026-05-05 15:10 57.19581 -7.87033 34127 ft 433 kts 255°
2026-05-05 15:10 57.17896 -7.97627 34126 ft 432 kts 255°
2026-05-05 15:11 57.16195 -8.08253 34123 ft 433 kts 255°
2026-05-05 15:11 57.14491 -8.18829 34124 ft 432 kts 255°
2026-05-05 15:12 57.12782 -8.29371 34123 ft 433 kts 255°
2026-05-05 15:12 57.11062 -8.39915 34124 ft 433 kts 255°
2026-05-05 15:13 57.09327 -8.50491 34128 ft 434 kts 255°
2026-05-05 15:13 57.07585 -8.61055 34129 ft 434 kts 255°
2026-05-05 15:14 57.05833 -8.71602 34133 ft 434 kts 254°
2026-05-05 15:14 57.04071 -8.82147 34130 ft 435 kts 254°
2026-05-05 15:15 57.02290 -8.92756 34130 ft 435 kts 254°
2026-05-05 15:15 57.00512 -9.03276 34134 ft 435 kts 254°
2026-05-05 15:16 56.98712 -9.13865 34143 ft 436 kts 254°
2026-05-05 15:16 56.96897 -9.24482 34149 ft 437 kts 254°
2026-05-05 15:17 56.95150 -9.35092 34157 ft 437 kts 257°
2026-05-05 15:17 56.94178 -9.45987 34158 ft 437 kts 266°
2026-05-05 15:18 56.94180 -9.57086 34158 ft 437 kts 275°
2026-05-05 15:18 56.95158 -9.67985 34161 ft 438 kts 283°
2026-05-05 15:19 56.96756 -9.78666 34160 ft 439 kts 284°
2026-05-05 15:19 56.98394 -9.89409 34160 ft 438 kts 283°
2026-05-05 15:20 56.99582 -10.00296 34161 ft 437 kts 277°
2026-05-05 15:20 57.00169 -10.11422 34163 ft 438 kts 272°
2026-05-05 15:21 57.00384 -10.22497 34162 ft 438 kts 272°
2026-05-05 15:21 57.00576 -10.33604 34163 ft 438 kts 272°
2026-05-05 15:22 57.00762 -10.44758 34163 ft 438 kts 272°
2026-05-05 15:22 57.00938 -10.55859 34162 ft 438 kts 272°
2026-05-05 15:23 57.01105 -10.66991 34163 ft 439 kts 271°
2026-05-05 15:23 57.01264 -10.78149 34162 ft 439 kts 271°
2026-05-05 15:24 57.01414 -10.89304 34163 ft 439 kts 271°
2026-05-05 15:24 57.01548 -11.00178 34164 ft 438 kts 271°
2026-05-05 15:25 57.01625 -11.06705 34161 ft 438 kts 271°
2026-05-05 15:25 57.01748 -11.17895 34157 ft 438 kts 271°
2026-05-05 15:26 57.01862 -11.29050 34157 ft 438 kts 271°
2026-05-05 15:26 57.01964 -11.40137 34155 ft 439 kts 271°
2026-05-05 15:27 57.02058 -11.51329 34155 ft 439 kts 271°
2026-05-05 15:27 57.02141 -11.62452 34154 ft 439 kts 271°
2026-05-05 15:28 57.02214 -11.73671 34159 ft 440 kts 270°
2026-05-05 15:28 57.02278 -11.84775 34154 ft 440 kts 270°
2026-05-05 15:29 57.02333 -11.96015 34158 ft 441 kts 270°
2026-05-05 15:29 57.02375 -12.07201 34158 ft 442 kts 270°
2026-05-05 15:30 57.02408 -12.18487 34161 ft 442 kts 270°
2026-05-05 15:30 57.02432 -12.29706 34267 ft 444 kts 270°
2026-05-05 15:30 57.02441 -12.35361 34550 ft 442 kts 270°
2026-05-05 15:31 57.02447 -12.40956 34847 ft 439 kts 270°
2026-05-05 15:31 57.02450 -12.46537 35013 ft 438 kts 270°
2026-05-05 15:31 57.02450 -12.52060 35131 ft 439 kts 270°
2026-05-05 15:31 57.02448 -12.57683 35246 ft 440 kts 271°
2026-05-05 15:32 57.02443 -12.63226 35362 ft 440 kts 271°
2026-05-05 15:32 57.02435 -12.68840 35488 ft 440 kts 270°
2026-05-05 15:32 57.02426 -12.74456 35605 ft 441 kts 270°
2026-05-05 15:32 57.02414 -12.80014 35712 ft 441 kts 270°
2026-05-05 15:33 57.02400 -12.85622 35821 ft 442 kts 270°
2026-05-05 15:33 57.02383 -12.91247 35937 ft 442 kts 270°
2026-05-05 15:33 57.02363 -12.96833 36056 ft 442 kts 270°
2026-05-05 15:34 57.02317 -13.08064 36445 ft 443 kts 270°
2026-05-05 15:34 57.02291 -13.13687 36303 ft 441 kts 270°
2026-05-05 15:34 57.02263 -13.19239 36237 ft 441 kts 270°
2026-05-05 15:35 57.02197 -13.30534 36181 ft 442 kts 270°
2026-05-05 15:35 57.02121 -13.41746 36167 ft 442 kts 270°
2026-05-05 15:36 57.02034 -13.52947 36163 ft 442 kts 270°
2026-05-05 15:36 57.01937 -13.64153 36162 ft 441 kts 270°
2026-05-05 15:37 57.01830 -13.75336 36158 ft 441 kts 270°
2026-05-05 15:37 57.01714 -13.86565 36160 ft 442 kts 269°
2026-05-05 15:38 57.01588 -13.97798 36159 ft 442 kts 270°
2026-05-05 15:38 57.01452 -14.09006 36160 ft 441 kts 270°
2026-05-05 15:39 57.01305 -14.20244 36159 ft 441 kts 270°
2026-05-05 15:39 57.01150 -14.31412 36161 ft 441 kts 270°
2026-05-05 15:40 57.00985 -14.42593 36162 ft 442 kts 270°
2026-05-05 15:40 57.00810 -14.53845 36163 ft 442 kts 270°
2026-05-05 15:41 57.00625 -14.65074 36163 ft 442 kts 269°
2026-05-05 15:41 57.00427 -14.76291 36161 ft 442 kts 269°
2026-05-05 15:42 57.00365 -14.87477 36162 ft 442 kts 273°
2026-05-05 15:42 57.00982 -14.98592 36163 ft 441 kts 280°
2026-05-05 15:43 57.02337 -15.09491 36155 ft 440 kts 287°
2026-05-05 15:43 57.04395 -15.20029 36161 ft 441 kts 292°
2026-05-05 15:44 57.06722 -15.30465 36159 ft 441 kts 292°
2026-05-05 15:44 57.09037 -15.40863 36156 ft 441 kts 292°
2026-05-05 15:45 57.11337 -15.51255 36153 ft 441 kts 292°
2026-05-05 15:45 57.13623 -15.61645 36151 ft 441 kts 292°
2026-05-05 15:46 57.15912 -15.72109 36157 ft 441 kts 291°
2026-05-05 15:46 57.18192 -15.82590 36154 ft 441 kts 291°
2026-05-05 15:47 57.20452 -15.93028 36157 ft 441 kts 292°
2026-05-05 15:47 57.22713 -16.03511 36158 ft 441 kts 291°
2026-05-05 15:48 57.24959 -16.13931 36156 ft 441 kts 291°
2026-05-05 15:48 57.27190 -16.24400 36155 ft 441 kts 291°
2026-05-05 15:49 57.29427 -16.34973 36162 ft 440 kts 291°
2026-05-05 15:49 57.31631 -16.45440 36169 ft 441 kts 292°
2026-05-05 15:50 57.33845 -16.55980 36176 ft 441 kts 292°
2026-05-05 15:50 57.36047 -16.66503 36184 ft 441 kts 291°
2026-05-05 15:51 57.38240 -16.77073 36182 ft 441 kts 292°
2026-05-05 15:51 57.40427 -16.87681 36188 ft 441 kts 292°
2026-05-05 15:52 57.42608 -16.98262 36191 ft 441 kts 292°
2026-05-05 15:52 57.44780 -17.08847 36185 ft 441 kts 292°
2026-05-05 15:53 57.46943 -17.19477 36190 ft 441 kts 292°
2026-05-05 15:53 57.49098 -17.30121 36189 ft 441 kts 292°
2026-05-05 15:54 57.51234 -17.40726 36185 ft 441 kts 292°
2026-05-05 15:54 57.53381 -17.51454 36187 ft 441 kts 292°
2026-05-05 15:55 57.55505 -17.62110 36188 ft 441 kts 292°
2026-05-05 15:55 57.57625 -17.72815 36192 ft 441 kts 291°
2026-05-05 15:56 57.59721 -17.83453 36193 ft 441 kts 291°
2026-05-05 15:56 57.61811 -17.94111 36195 ft 441 kts 291°
2026-05-05 15:57 57.63909 -18.04870 36200 ft 441 kts 291°
2026-05-05 15:57 57.65990 -18.15608 36203 ft 441 kts 292°
2026-05-05 15:58 57.68050 -18.26293 36204 ft 440 kts 292°
2026-05-05 15:58 57.70112 -18.37045 36206 ft 440 kts 292°
2026-05-05 15:59 57.72161 -18.47792 36209 ft 440 kts 292°
2026-05-05 15:59 57.74192 -18.58497 36210 ft 441 kts 292°
2026-05-05 16:00 57.76228 -18.69302 36210 ft 441 kts 291°
2026-05-05 16:00 57.78241 -18.80040 36212 ft 440 kts 291°
2026-05-05 16:01 57.80262 -18.90882 36214 ft 439 kts 291°
2026-05-05 16:01 57.82260 -19.01655 36213 ft 439 kts 291°
2026-05-05 16:02 57.84239 -19.12389 36206 ft 440 kts 291°
2026-05-05 16:02 57.86221 -19.23205 36206 ft 440 kts 291°
2026-05-05 16:03 57.88161 -19.33850 36208 ft 439 kts 292°
2026-05-05 16:03 57.90117 -19.44639 36208 ft 439 kts 292°
2026-05-05 16:04 57.92075 -19.55497 36210 ft 439 kts 292°
2026-05-05 16:04 57.94019 -19.66341 36212 ft 438 kts 291°
2026-05-05 16:05 57.95634 -19.75399 36213 ft 438 kts 291°
2026-05-05 16:05 57.97548 -19.86210 36212 ft 438 kts 291°
2026-05-05 16:06 57.99178 -19.97251 36207 ft 439 kts 285°
2026-05-05 16:06 58.00206 -20.08579 36206 ft 442 kts 280°
2026-05-05 16:07 58.00719 -20.20116 36210 ft 444 kts 278°
2026-05-05 16:07 58.01143 -20.31601 36220 ft 444 kts 278°
2026-05-05 16:08 58.01562 -20.43220 36226 ft 444 kts 278°
2026-05-05 16:08 58.01968 -20.54726 36222 ft 444 kts 278°
2026-05-05 16:09 58.02365 -20.66260 36222 ft 443 kts 278°
2026-05-05 16:09 58.02755 -20.77823 36223 ft 443 kts 278°
2026-05-05 16:10 58.03131 -20.89332 36221 ft 442 kts 278°
2026-05-05 16:10 58.03499 -21.00889 36223 ft 442 kts 278°
2026-05-05 16:11 58.03856 -21.12393 36228 ft 441 kts 278°
2026-05-05 16:12 58.04535 -21.35457 36233 ft 442 kts 278°
2026-05-05 16:13 58.05331 -21.64322 36243 ft 442 kts 278°
2026-05-05 16:13 58.05627 -21.75813 36241 ft 442 kts 277°
2026-05-05 16:14 58.06194 -21.98909 36227 ft 441 kts 277°
2026-05-05 16:15 58.06719 -22.21955 36225 ft 442 kts 277°
2026-05-05 16:16 58.07202 -22.45064 35993 ft 441 kts 277°
2026-05-05 16:17 58.07428 -22.56536 36152 ft 443 kts 277°
2026-05-05 16:17 58.07539 -22.62365 36188 ft 443 kts 277°
2026-05-05 16:18 58.07850 -22.79783 36221 ft 444 kts 276°
2026-05-05 16:19 58.08139 -22.97206 36223 ft 444 kts 277°
2026-05-05 16:19 58.08404 -23.14644 36223 ft 444 kts 277°
2026-05-05 16:20 58.08720 -23.37870 36229 ft 445 kts 277°
2026-05-05 16:22 58.09055 -23.66986 36233 ft 446 kts 276°
2026-05-05 16:23 58.09281 -23.90287 36234 ft 447 kts 276°
2026-05-05 16:23 58.09419 -24.07842 36225 ft 446 kts 276°
2026-05-05 16:24 58.09497 -24.19451 36223 ft 447 kts 276°
2026-05-05 16:25 58.09598 -24.36981 36225 ft 447 kts 276°
2026-05-05 16:25 58.09673 -24.54595 36227 ft 447 kts 276°
2026-05-05 16:26 58.09735 -24.77948 36222 ft 448 kts 275°
2026-05-05 16:27 58.09750 -24.89701 36224 ft 448 kts 275°
2026-05-05 16:27 58.09752 -25.01374 36230 ft 447 kts 276°
2026-05-05 16:28 58.09746 -25.13105 36222 ft 446 kts 276°
2026-05-05 16:28 58.09731 -25.24732 36219 ft 447 kts 276°
2026-05-05 16:29 58.09703 -25.36487 36223 ft 447 kts 276°
2026-05-05 16:29 58.09665 -25.48141 36225 ft 447 kts 276°
2026-05-05 16:30 58.09615 -25.59859 36222 ft 447 kts 276°
2026-05-05 16:30 58.09555 -25.71571 36218 ft 448 kts 275°
2026-05-05 16:31 58.09485 -25.83299 36210 ft 448 kts 275°
2026-05-05 16:31 58.09403 -25.94952 36201 ft 447 kts 275°
2026-05-05 16:32 58.09311 -26.06706 36210 ft 447 kts 275°
2026-05-05 16:32 58.09208 -26.18376 36222 ft 446 kts 275°
2026-05-05 16:33 58.09095 -26.29995 36214 ft 446 kts 275°
2026-05-05 16:33 58.08970 -26.41731 36205 ft 446 kts 275°
2026-05-05 16:34 58.08836 -26.53358 36205 ft 446 kts 275°
2026-05-05 16:34 58.08691 -26.65057 36268 ft 447 kts 274°
2026-05-05 16:35 58.08615 -26.70886 36446 ft 447 kts 274°
2026-05-05 16:35 58.08534 -26.76771 36713 ft 445 kts 274°
2026-05-05 16:35 58.08453 -26.82502 36942 ft 444 kts 274°
2026-05-05 16:35 58.08369 -26.88300 37144 ft 444 kts 274°
2026-05-05 16:36 58.08193 -26.99937 37204 ft 445 kts 274°
2026-05-05 16:36 58.08007 -27.11681 37206 ft 453 kts 274°
2026-05-05 16:37 58.07805 -27.23666 37211 ft 460 kts 274°
2026-05-05 16:37 58.07587 -27.35653 37211 ft 461 kts 274°
2026-05-05 16:38 58.07357 -27.47736 37210 ft 461 kts 274°
2026-05-05 16:38 58.07117 -27.59765 37205 ft 460 kts 274°
2026-05-05 16:39 58.06868 -27.71756 37209 ft 460 kts 272°
2026-05-05 16:39 58.06605 -27.83830 37210 ft 460 kts 272°
2026-05-05 16:40 58.06332 -27.95838 37202 ft 460 kts 272°
2026-05-05 16:40 58.06049 -28.07841 37209 ft 460 kts 272°
2026-05-05 16:41 58.05753 -28.19870 37205 ft 460 kts 272°
2026-05-05 16:41 58.05446 -28.31877 37207 ft 460 kts 272°
2026-05-05 16:42 58.05127 -28.43911 37204 ft 460 kts 272°
2026-05-05 16:42 58.04798 -28.55907 37218 ft 460 kts 272°
2026-05-05 16:43 58.04459 -28.67885 37225 ft 460 kts 271°
2026-05-05 16:43 58.04107 -28.79909 37229 ft 461 kts 271°
2026-05-05 16:44 58.03744 -28.91928 37223 ft 461 kts 271°
2026-05-05 16:44 58.03368 -29.03965 37217 ft 462 kts 271°
2026-05-05 16:45 58.02980 -29.16057 37224 ft 463 kts 271°
2026-05-05 16:45 58.02582 -29.28093 37226 ft 463 kts 271°
2026-05-05 16:46 58.02171 -29.40202 37218 ft 463 kts 271°
2026-05-05 16:46 58.01749 -29.52264 37214 ft 463 kts 271°
2026-05-05 16:47 58.01317 -29.64317 37215 ft 463 kts 271°
2026-05-05 16:47 58.00877 -29.76335 37215 ft 464 kts 270°
2026-05-05 16:48 58.00415 -29.88518 37211 ft 465 kts 270°
2026-05-05 16:48 58.00136 -30.00497 37203 ft 452 kts 274°
2026-05-05 16:49 58.00209 -30.06339 37203 ft 440 kts 277°
2026-05-05 16:49 58.00404 -30.12051 37200 ft 439 kts 278°
2026-05-05 16:49 58.00840 -30.23471 37198 ft 440 kts 278°
2026-05-05 16:50 58.01269 -30.34962 37193 ft 440 kts 278°
2026-05-05 16:50 58.01687 -30.46472 37197 ft 441 kts 278°
2026-05-05 16:51 58.02092 -30.57956 37196 ft 442 kts 278°
2026-05-05 16:51 58.02488 -30.69517 37200 ft 442 kts 277°
2026-05-05 16:52 58.02870 -30.80980 37196 ft 442 kts 277°
2026-05-05 16:52 58.03247 -30.92562 37195 ft 443 kts 277°
2026-05-05 16:53 58.03610 -31.04090 37205 ft 444 kts 277°
2026-05-05 16:53 58.03968 -31.15742 37206 ft 444 kts 276°
2026-05-05 16:54 58.04313 -31.27341 37199 ft 445 kts 277°
2026-05-05 16:54 58.04646 -31.38918 37197 ft 445 kts 276°
2026-05-05 16:55 58.04970 -31.50550 37201 ft 446 kts 276°
2026-05-05 16:55 58.05286 -31.62261 37207 ft 446 kts 276°
2026-05-05 16:56 58.05587 -31.73857 37200 ft 447 kts 275°
2026-05-05 16:56 58.05881 -31.85556 37201 ft 447 kts 275°
2026-05-05 16:57 58.06166 -31.97293 37202 ft 448 kts 275°
2026-05-05 16:57 58.06438 -32.09018 37200 ft 449 kts 275°
2026-05-05 16:58 58.06701 -32.20732 37202 ft 450 kts 275°
2026-05-05 16:58 58.06953 -32.32491 37204 ft 450 kts 275°
2026-05-05 16:59 58.07194 -32.44241 37201 ft 450 kts 275°
2026-05-05 16:59 58.07425 -32.56050 37197 ft 450 kts 275°
2026-05-05 17:00 58.07644 -32.67773 37199 ft 451 kts 274°
2026-05-05 17:00 58.07853 -32.79553 37198 ft 451 kts 274°
2026-05-05 17:01 58.08052 -32.91438 37201 ft 452 kts 274°
2026-05-05 17:01 58.08241 -33.03283 37199 ft 453 kts 274°
2026-05-05 17:02 58.08418 -33.15105 37199 ft 453 kts 274°
2026-05-05 17:02 58.08584 -33.26956 37201 ft 454 kts 274°
2026-05-05 17:03 58.08741 -33.38889 37201 ft 454 kts 273°
2026-05-05 17:03 58.08883 -33.50733 37201 ft 455 kts 273°
2026-05-05 17:04 58.09018 -33.62609 37200 ft 455 kts 273°
2026-05-05 17:04 58.09140 -33.74593 37204 ft 456 kts 272°
2026-05-05 17:05 58.09253 -33.86525 37204 ft 457 kts 272°
2026-05-05 17:05 58.09353 -33.98503 37202 ft 457 kts 272°
2026-05-05 17:06 58.09443 -34.10444 37205 ft 457 kts 272°
2026-05-05 17:06 58.09521 -34.22443 37205 ft 458 kts 272°
2026-05-05 17:07 58.09588 -34.34441 37204 ft 460 kts 272°
2026-05-05 17:07 58.09645 -34.46474 37201 ft 461 kts 272°
2026-05-05 17:08 58.09690 -34.58569 37204 ft 463 kts 272°
2026-05-05 17:08 58.09725 -34.70758 37204 ft 472 kts 271°
2026-05-05 17:09 58.09747 -34.83260 37198 ft 479 kts 271°
2026-05-05 17:09 58.09755 -34.95763 37190 ft 479 kts 271°
2026-05-05 17:10 58.09752 -35.08335 37186 ft 480 kts 271°
2026-05-05 17:10 58.09738 -35.20935 37186 ft 481 kts 270°
2026-05-05 17:11 58.09712 -35.33508 37188 ft 481 kts 270°
2026-05-05 17:11 58.09672 -35.46005 37187 ft 481 kts 270°
2026-05-05 17:12 58.09620 -35.58704 37184 ft 482 kts 270°
2026-05-05 17:12 58.09556 -35.71337 37185 ft 483 kts 269°
2026-05-05 17:13 58.09480 -35.83923 37187 ft 484 kts 269°
2026-05-05 17:13 58.09390 -35.96569 37187 ft 483 kts 269°
2026-05-05 17:14 58.09287 -36.09246 37181 ft 483 kts 269°
2026-05-05 17:14 58.09173 -36.21872 37181 ft 484 kts 269°
2026-05-05 17:15 58.09046 -36.34574 37178 ft 486 kts 269°
2026-05-05 17:15 58.08907 -36.47252 37174 ft 486 kts 269°
2026-05-05 17:16 58.08755 -36.59918 37182 ft 486 kts 269°
2026-05-05 17:16 58.08588 -36.72669 37188 ft 487 kts 268°
2026-05-05 17:17 58.08410 -36.85387 37176 ft 488 kts 268°
2026-05-05 17:17 58.08219 -36.98145 37177 ft 488 kts 268°
2026-05-05 17:18 58.08013 -37.10937 37185 ft 488 kts 268°
2026-05-05 17:18 58.07797 -37.23622 37179 ft 488 kts 268°
2026-05-05 17:19 58.07566 -37.36428 37184 ft 489 kts 268°
2026-05-05 17:19 58.07323 -37.49234 37183 ft 490 kts 268°
2026-05-05 17:20 58.07066 -37.62047 37179 ft 491 kts 268°
2026-05-05 17:20 58.06798 -37.74851 37175 ft 491 kts 266°
2026-05-05 17:21 58.06515 -37.87662 37178 ft 492 kts 266°
2026-05-05 17:22 58.06069 -38.06799 37182 ft 493 kts 266°
2026-05-05 17:22 58.05754 -38.19622 37175 ft 493 kts 266°
2026-05-05 17:23 58.05425 -38.32507 37171 ft 493 kts 266°
2026-05-05 17:23 58.05083 -38.45340 37149 ft 494 kts 266°
2026-05-05 17:24 58.04728 -38.58256 37165 ft 494 kts 266°
2026-05-05 17:24 58.04359 -38.71169 37153 ft 495 kts 265°
2026-05-05 17:25 58.03976 -38.84107 37127 ft 495 kts 265°
2026-05-05 17:25 58.03582 -38.96962 37135 ft 496 kts 265°
2026-05-05 17:26 58.03172 -39.09935 37124 ft 496 kts 265°
2026-05-05 17:26 58.02750 -39.22823 37137 ft 496 kts 265°
2026-05-05 17:27 58.02313 -39.35804 37127 ft 497 kts 265°
2026-05-05 17:27 58.01866 -39.48732 37122 ft 498 kts 265°
2026-05-05 17:28 58.01403 -39.61740 37115 ft 499 kts 265°
2026-05-05 17:28 58.00927 -39.74761 37127 ft 500 kts 264°
2026-05-05 17:29 58.00438 -39.87786 37112 ft 500 kts 264°
2026-05-05 17:29 57.99916 -40.00747 37114 ft 500 kts 262°
2026-05-05 17:30 57.99154 -40.13730 37117 ft 500 kts 261°
2026-05-05 17:30 57.98359 -40.26758 37106 ft 501 kts 261°
2026-05-05 17:31 57.97562 -40.39690 37103 ft 502 kts 261°
2026-05-05 17:31 57.96748 -40.52777 37107 ft 502 kts 261°
2026-05-05 17:32 57.95931 -40.65689 37076 ft 497 kts 260°
2026-05-05 17:32 57.95116 -40.78409 37068 ft 488 kts 260°
2026-05-05 17:33 57.94291 -40.91024 37102 ft 488 kts 260°
2026-05-05 17:33 57.93451 -41.03688 37078 ft 489 kts 259°
2026-05-05 17:34 57.92595 -41.16360 37053 ft 489 kts 260°
2026-05-05 17:34 57.91736 -41.28919 37075 ft 490 kts 259°
2026-05-05 17:35 57.90854 -41.41637 37069 ft 491 kts 259°
2026-05-05 17:35 57.89960 -41.54316 37066 ft 492 kts 259°
2026-05-05 17:36 57.89052 -41.67025 37071 ft 493 kts 258°
2026-05-05 17:36 57.88135 -41.79686 37038 ft 494 kts 258°
2026-05-05 17:37 57.87197 -41.92403 37039 ft 494 kts 258°
2026-05-05 17:37 57.86245 -42.05181 36987 ft 495 kts 258°
2026-05-05 17:38 57.85284 -42.17892 37018 ft 496 kts 258°
2026-05-05 17:38 57.84298 -42.30749 37002 ft 497 kts 258°
2026-05-05 17:39 57.83311 -42.43458 37001 ft 497 kts 258°
2026-05-05 17:39 57.81914 -42.56069 37021 ft 490 kts 246°
2026-05-05 17:40 57.79462 -42.67920 37022 ft 490 kts 244°
2026-05-05 17:40 57.77336 -42.79963 37027 ft 494 kts 251°
2026-05-05 17:41 57.75975 -42.92583 37001 ft 498 kts 257°
2026-05-05 17:41 57.74937 -43.05323 37016 ft 498 kts 257°
2026-05-05 17:42 57.73888 -43.18076 36981 ft 498 kts 257°
2026-05-05 17:42 57.72805 -43.30895 36983 ft 498 kts 257°
2026-05-05 17:43 57.71714 -43.43600 36990 ft 499 kts 257°
2026-05-05 17:43 57.70605 -43.56348 36963 ft 499 kts 257°
2026-05-05 17:44 57.69479 -43.69112 36976 ft 498 kts 256°
2026-05-05 17:44 57.68345 -43.81808 36955 ft 498 kts 256°
2026-05-05 17:45 57.67202 -43.94444 36964 ft 496 kts 256°
2026-05-05 17:45 57.66043 -44.07122 36961 ft 498 kts 256°
2026-05-05 17:46 57.64872 -44.19783 36977 ft 497 kts 256°
2026-05-05 17:46 57.63685 -44.32460 36961 ft 497 kts 256°
2026-05-05 17:47 57.62492 -44.45081 36962 ft 496 kts 256°
2026-05-05 17:47 57.61283 -44.57731 36950 ft 497 kts 257°
2026-05-05 17:48 57.60060 -44.70387 37059 ft 496 kts 256°
2026-05-05 17:48 57.58838 -44.82904 37000 ft 495 kts 256°
2026-05-05 17:49 57.57592 -44.95508 36956 ft 495 kts 256°
2026-05-05 17:49 57.56340 -45.08039 36956 ft 495 kts 255°
2026-05-05 17:50 57.55069 -45.20617 36946 ft 496 kts 256°
2026-05-05 17:50 57.53788 -45.33184 36937 ft 497 kts 256°
2026-05-05 17:51 57.52490 -45.45763 36927 ft 498 kts 256°
2026-05-05 17:51 57.51185 -45.58302 36923 ft 496 kts 256°
2026-05-05 17:52 57.49867 -45.70839 36918 ft 496 kts 255°
2026-05-05 17:52 57.48533 -45.83381 36922 ft 498 kts 255°
2026-05-05 17:53 57.47179 -45.95991 36898 ft 497 kts 255°
2026-05-05 17:53 57.45830 -46.08461 36889 ft 498 kts 255°
2026-05-05 17:54 57.44456 -46.21001 36898 ft 497 kts 255°
2026-05-05 17:54 57.43074 -46.33499 36894 ft 497 kts 255°
2026-05-05 17:55 57.41676 -46.46007 36872 ft 497 kts 255°
2026-05-05 17:55 57.40274 -46.58449 36878 ft 497 kts 255°
2026-05-05 17:56 57.38855 -46.70926 36874 ft 496 kts 254°
2026-05-05 17:56 57.37422 -46.83391 36863 ft 497 kts 254°
2026-05-05 17:57 57.35973 -46.95890 36863 ft 497 kts 254°
2026-05-05 17:57 57.34520 -47.08313 36858 ft 498 kts 254°
2026-05-05 17:58 57.33053 -47.20740 36845 ft 498 kts 254°
2026-05-05 17:58 57.31566 -47.33222 36827 ft 497 kts 254°
2026-05-05 17:59 57.30077 -47.45608 36834 ft 496 kts 254°
2026-05-05 17:59 57.28573 -47.57992 36818 ft 498 kts 255°
2026-05-05 18:00 57.27049 -47.70443 36800 ft 498 kts 253°
2026-05-05 18:00 57.25517 -47.82843 36798 ft 498 kts 253°
2026-05-05 18:01 57.23970 -47.95251 36785 ft 497 kts 254°
2026-05-05 18:01 57.22427 -48.07539 36797 ft 497 kts 254°
2026-05-05 18:02 57.20862 -48.19893 36768 ft 497 kts 254°
2026-05-05 18:02 57.19278 -48.32286 36793 ft 498 kts 253°
2026-05-05 18:03 57.17690 -48.44604 36771 ft 496 kts 253°
2026-05-05 18:03 57.16089 -48.56916 36758 ft 495 kts 253°
2026-05-05 18:04 57.14484 -48.69156 36758 ft 495 kts 253°
2026-05-05 18:04 57.12862 -48.81416 36749 ft 494 kts 253°
2026-05-05 18:05 57.11234 -48.93638 36739 ft 494 kts 253°
2026-05-05 18:05 57.09591 -49.05866 36722 ft 494 kts 253°
2026-05-05 18:06 57.08196 -49.16167 36757 ft 494 kts 253°
2026-05-05 18:06 57.06308 -49.30005 36745 ft 495 kts 253°
2026-05-05 18:07 57.04636 -49.42152 36710 ft 496 kts 253°
2026-05-05 18:07 57.02940 -49.54399 36748 ft 496 kts 253°
2026-05-05 18:08 57.01232 -49.66632 36738 ft 496 kts 252°
2026-05-05 18:08 56.99523 -49.78805 36715 ft 495 kts 252°
2026-05-05 18:09 56.97793 -49.90976 36706 ft 495 kts 251°
2026-05-05 18:09 56.95670 -50.02782 36705 ft 492 kts 245°
2026-05-05 18:10 56.92957 -50.14213 36701 ft 491 kts 243°
2026-05-05 18:10 56.90185 -50.25578 36691 ft 491 kts 243°
2026-05-05 18:11 56.87485 -50.36627 36683 ft 491 kts 243°
2026-05-05 18:11 56.84705 -50.47989 36675 ft 491 kts 243°
2026-05-05 18:12 56.81928 -50.59275 36673 ft 491 kts 243°
2026-05-05 18:12 56.79141 -50.70542 36664 ft 491 kts 243°
2026-05-05 18:13 56.76331 -50.81850 36659 ft 491 kts 243°
2026-05-05 18:13 56.73510 -50.93144 36644 ft 491 kts 243°
2026-05-05 18:14 56.70686 -51.04385 36637 ft 490 kts 243°
2026-05-05 18:14 56.67853 -51.15609 36628 ft 491 kts 243°
2026-05-05 18:15 56.65006 -51.26833 36620 ft 491 kts 243°
2026-05-05 18:15 56.62165 -51.37975 36613 ft 490 kts 243°
2026-05-05 18:16 56.59303 -51.49144 36611 ft 490 kts 243°
2026-05-05 18:16 56.56446 -51.60242 36606 ft 490 kts 243°
2026-05-05 18:17 56.53555 -51.71414 36605 ft 489 kts 242°
2026-05-05 18:17 56.50679 -51.82478 36602 ft 489 kts 242°
2026-05-05 18:18 56.47786 -51.93546 36604 ft 488 kts 242°
2026-05-05 18:18 56.44877 -52.04612 36596 ft 488 kts 242°
2026-05-05 18:19 56.41964 -52.15647 36588 ft 488 kts 243°
2026-05-05 18:19 56.39021 -52.26743 36582 ft 488 kts 242°
2026-05-05 18:20 56.36125 -52.37614 36577 ft 489 kts 242°
2026-05-05 18:20 56.33192 -52.48563 36568 ft 488 kts 242°
2026-05-05 18:21 56.30243 -52.59522 36564 ft 487 kts 243°
2026-05-05 18:21 56.27290 -52.70442 36557 ft 487 kts 242°
2026-05-05 18:22 56.24332 -52.81331 36554 ft 486 kts 242°
2026-05-05 18:22 56.21374 -52.92164 36549 ft 486 kts 242°
2026-05-05 18:23 56.18398 -53.03011 36544 ft 486 kts 242°
2026-05-05 18:23 56.16410 -53.10228 36542 ft 486 kts 242°
2026-05-05 18:24 56.12428 -53.24622 36543 ft 486 kts 242°
2026-05-05 18:24 56.09442 -53.35355 36537 ft 485 kts 242°
2026-05-05 18:25 56.06434 -53.46117 36536 ft 484 kts 242°
2026-05-05 18:25 56.03416 -53.56860 36532 ft 484 kts 242°
2026-05-05 18:26 56.00404 -53.67533 36527 ft 484 kts 242°
2026-05-05 18:26 55.97377 -53.78217 36527 ft 484 kts 242°
2026-05-05 18:27 55.94336 -53.88901 36525 ft 484 kts 241°
2026-05-05 18:27 55.91306 -53.99498 36524 ft 484 kts 241°
2026-05-05 18:28 55.86729 -54.15406 36517 ft 482 kts 241°
2026-05-05 18:28 55.83665 -54.25989 36513 ft 481 kts 242°
2026-05-05 18:29 55.80647 -54.36375 36513 ft 481 kts 242°
2026-05-05 18:29 55.77602 -54.46809 36511 ft 481 kts 242°
2026-05-05 18:30 55.74514 -54.57342 36513 ft 480 kts 242°
2026-05-05 18:30 55.71436 -54.67792 36515 ft 480 kts 241°
2026-05-05 18:31 55.68367 -54.78166 36518 ft 479 kts 240°
2026-05-05 18:31 55.65281 -54.88549 36519 ft 478 kts 241°
2026-05-05 18:32 55.62200 -54.98873 36518 ft 477 kts 241°
2026-05-05 18:32 55.59101 -55.09203 36517 ft 478 kts 241°
2026-05-05 18:33 55.55981 -55.19567 36511 ft 478 kts 241°
2026-05-05 18:33 55.52886 -55.29802 36507 ft 478 kts 241°
2026-05-05 18:34 55.49744 -55.40145 36502 ft 477 kts 241°
2026-05-05 18:34 55.46615 -55.50406 36502 ft 476 kts 241°
2026-05-05 18:35 55.43509 -55.60545 36501 ft 475 kts 241°
2026-05-05 18:35 55.40373 -55.70734 36500 ft 475 kts 240°
2026-05-05 18:36 55.37216 -55.80952 36500 ft 475 kts 240°
2026-05-05 18:36 55.34089 -55.91031 36504 ft 475 kts 240°
2026-05-05 18:37 55.30925 -56.01185 36509 ft 476 kts 240°
2026-05-05 18:37 55.27751 -56.11325 36513 ft 475 kts 240°
2026-05-05 18:38 55.24571 -56.21447 36514 ft 475 kts 240°
2026-05-05 18:38 55.21403 -56.31488 36515 ft 473 kts 240°
2026-05-05 18:39 55.18232 -56.41494 36514 ft 473 kts 240°
2026-05-05 18:39 55.15055 -56.51481 36516 ft 472 kts 240°
2026-05-05 18:40 55.11869 -56.61459 36517 ft 472 kts 240°
2026-05-05 18:40 55.08667 -56.71449 36517 ft 472 kts 240°
2026-05-05 18:41 55.05472 -56.81383 36517 ft 472 kts 240°
2026-05-05 18:41 55.02259 -56.91314 36510 ft 471 kts 240°
2026-05-05 18:42 54.98791 -57.00918 36510 ft 471 kts 234°
2026-05-05 18:42 54.94952 -57.10075 36506 ft 472 kts 234°
2026-05-05 18:43 54.91098 -57.19249 36515 ft 471 kts 234°
2026-05-05 18:43 54.87241 -57.28406 36523 ft 470 kts 234°
2026-05-05 18:44 54.83390 -57.37519 36527 ft 469 kts 234°
2026-05-05 18:44 54.79592 -57.46646 36516 ft 468 kts 239°
2026-05-05 18:45 54.76938 -57.56876 36518 ft 468 kts 249°
2026-05-05 18:45 54.74289 -57.67056 36525 ft 467 kts 241°
2026-05-05 18:46 54.70824 -57.76568 36527 ft 468 kts 234°
2026-05-05 18:46 54.66948 -57.85577 36521 ft 468 kts 233°
2026-05-05 18:47 54.63083 -57.94545 36521 ft 467 kts 233°
2026-05-05 18:47 54.59213 -58.03480 36513 ft 466 kts 234°
2026-05-05 18:48 54.55347 -58.12374 36507 ft 466 kts 233°
2026-05-05 18:48 54.51467 -58.21264 36499 ft 465 kts 233°
2026-05-05 18:49 54.47582 -58.30130 36498 ft 465 kts 233°
2026-05-05 18:49 54.43694 -58.38971 36493 ft 465 kts 233°
2026-05-05 18:50 54.39794 -58.47807 36495 ft 465 kts 234°
2026-05-05 18:50 54.35909 -58.56582 36499 ft 465 kts 234°
2026-05-05 18:51 54.32015 -58.65340 36497 ft 463 kts 233°
2026-05-05 18:51 54.28115 -58.74084 36504 ft 463 kts 233°
2026-05-05 18:52 54.24225 -58.82779 36505 ft 462 kts 233°
2026-05-05 18:52 54.20324 -58.91465 36505 ft 461 kts 233°
2026-05-05 18:53 54.16433 -59.00100 36502 ft 462 kts 233°
2026-05-05 18:53 54.12530 -59.08728 36523 ft 461 kts 233°
2026-05-05 18:54 54.08611 -59.17363 36498 ft 460 kts 233°
2026-05-05 18:54 54.04722 -59.25903 36516 ft 460 kts 233°
2026-05-05 18:55 54.00817 -59.34449 36508 ft 460 kts 233°
2026-05-05 18:55 53.96887 -59.43019 36519 ft 460 kts 233°
2026-05-05 18:56 53.92980 -59.51510 36509 ft 459 kts 233°
2026-05-05 18:56 53.89055 -59.60012 36510 ft 458 kts 233°
2026-05-05 18:57 53.85098 -59.68552 36515 ft 458 kts 233°
2026-05-05 18:57 53.81197 -59.76948 36522 ft 457 kts 233°
2026-05-05 18:58 53.77275 -59.85358 36536 ft 456 kts 233°
2026-05-05 18:58 53.73360 -59.93723 36534 ft 456 kts 233°
2026-05-05 18:59 53.69429 -60.02096 36540 ft 456 kts 233°
2026-05-05 18:59 53.65494 -60.10442 36547 ft 455 kts 233°
2026-05-05 19:00 53.61580 -60.18726 36560 ft 454 kts 233°
2026-05-05 19:00 53.57637 -60.27042 36546 ft 455 kts 233°
2026-05-05 19:01 53.53714 -60.35286 36569 ft 454 kts 233°
2026-05-05 19:01 53.49778 -60.43529 36560 ft 452 kts 233°
2026-05-05 19:02 53.45850 -60.51729 36555 ft 452 kts 233°
2026-05-05 19:02 53.41911 -60.59927 36553 ft 452 kts 233°
2026-05-05 19:03 53.37981 -60.68076 36565 ft 450 kts 233°
2026-05-05 19:03 53.34055 -60.76193 36561 ft 451 kts 233°
2026-05-05 19:04 53.30117 -60.84314 36563 ft 450 kts 233°
2026-05-05 19:04 53.26181 -60.92398 36553 ft 450 kts 233°
2026-05-05 19:05 53.22223 -61.00500 36557 ft 449 kts 233°
2026-05-05 19:05 53.18307 -61.08491 36558 ft 449 kts 233°
2026-05-05 19:06 53.14359 -61.16524 36557 ft 448 kts 233°
2026-05-05 19:06 53.10432 -61.24487 36572 ft 447 kts 233°
2026-05-05 19:07 53.07137 -61.31153 36554 ft 447 kts 233°
2026-05-05 19:07 53.02541 -61.40413 36564 ft 446 kts 233°
2026-05-05 19:08 52.98609 -61.48308 36573 ft 445 kts 233°
2026-05-05 19:08 52.94679 -61.56175 36577 ft 444 kts 233°
2026-05-05 19:09 52.90739 -61.64042 36566 ft 443 kts 233°
2026-05-05 19:09 52.86820 -61.71843 36584 ft 443 kts 233°
2026-05-05 19:10 52.82877 -61.79662 36571 ft 443 kts 233°
2026-05-05 19:10 52.78931 -61.87467 36575 ft 443 kts 233°
2026-05-05 19:11 52.74991 -61.95232 36564 ft 442 kts 233°
2026-05-05 19:11 52.71066 -62.02945 36566 ft 441 kts 233°
2026-05-05 19:12 52.67128 -62.10661 36578 ft 438 kts 233°
2026-05-05 19:12 52.63213 -62.18310 36564 ft 439 kts 233°
2026-05-05 19:13 52.59296 -62.25936 36567 ft 437 kts 233°
2026-05-05 19:13 52.55369 -62.33561 36583 ft 438 kts 233°
2026-05-05 19:14 52.51453 -62.41143 36574 ft 437 kts 233°
2026-05-05 19:14 52.47525 -62.48717 36563 ft 437 kts 233°
2026-05-05 19:15 52.43607 -62.56261 36582 ft 435 kts 233°
2026-05-05 19:15 52.39691 -62.63770 36567 ft 434 kts 233°
2026-05-05 19:16 52.35789 -62.71230 36565 ft 434 kts 232°
2026-05-05 19:16 52.31866 -62.78708 36565 ft 433 kts 233°
2026-05-05 19:17 52.27963 -62.86126 36554 ft 432 kts 233°
2026-05-05 19:17 52.24065 -62.93523 36555 ft 431 kts 233°
2026-05-05 19:18 52.20168 -63.00883 36562 ft 430 kts 233°
2026-05-05 19:18 52.16275 -63.08218 36559 ft 429 kts 233°
2026-05-05 19:19 52.12369 -63.15562 36565 ft 429 kts 233°
2026-05-05 19:19 52.08454 -63.22895 36562 ft 428 kts 233°
2026-05-05 19:20 52.04590 -63.30117 36555 ft 427 kts 233°
2026-05-05 19:20 52.00744 -63.37279 36554 ft 427 kts 233°
2026-05-05 19:21 51.96792 -63.44617 36548 ft 426 kts 233°
2026-05-05 19:21 51.92928 -63.51774 36546 ft 425 kts 233°
2026-05-05 19:22 51.89032 -63.58972 36536 ft 423 kts 232°
2026-05-05 19:22 51.85158 -63.66105 36538 ft 423 kts 232°
2026-05-05 19:23 51.81275 -63.73231 36539 ft 423 kts 232°
2026-05-05 19:23 51.77386 -63.80351 36542 ft 423 kts 232°
2026-05-05 19:24 51.73537 -63.87380 36528 ft 422 kts 232°
2026-05-05 19:24 51.69662 -63.94438 36555 ft 421 kts 232°
2026-05-05 19:25 51.65778 -64.01488 36547 ft 420 kts 232°
2026-05-05 19:25 51.61925 -64.08463 36549 ft 418 kts 232°
2026-05-05 19:26 51.58061 -64.15445 36552 ft 418 kts 232°
2026-05-05 19:26 51.54236 -64.22328 36562 ft 416 kts 232°
2026-05-05 19:27 51.50396 -64.29224 36539 ft 415 kts 232°
2026-05-05 19:27 51.46552 -64.36108 36544 ft 414 kts 232°
2026-05-05 19:28 51.42730 -64.42933 36542 ft 414 kts 232°
2026-05-05 19:28 51.38898 -64.49762 36540 ft 414 kts 232°
2026-05-05 19:29 51.35074 -64.56552 36536 ft 412 kts 232°
2026-05-05 19:29 51.31245 -64.63335 36525 ft 411 kts 232°
2026-05-05 19:30 51.27430 -64.70077 36536 ft 410 kts 231°
2026-05-05 19:30 51.23608 -64.76811 36540 ft 410 kts 231°
2026-05-05 19:31 51.19797 -64.83508 36544 ft 409 kts 231°
2026-05-05 19:31 51.15976 -64.90199 36557 ft 409 kts 231°
2026-05-05 19:32 51.12180 -64.96840 36549 ft 408 kts 231°
2026-05-05 19:32 51.08382 -65.03469 36542 ft 406 kts 231°
2026-05-05 19:33 51.04572 -65.10086 36550 ft 406 kts 231°
2026-05-05 19:33 51.00772 -65.16675 36552 ft 405 kts 231°
2026-05-05 19:34 50.96999 -65.23206 36548 ft 404 kts 231°
2026-05-05 19:35 50.91297 -65.33034 36537 ft 404 kts 231°
2026-05-05 19:35 50.87514 -65.39532 36535 ft 405 kts 231°
2026-05-05 19:36 50.83684 -65.46100 36526 ft 404 kts 231°
2026-05-05 19:36 50.79900 -65.52569 36526 ft 402 kts 231°
2026-05-05 19:37 50.76133 -65.58997 36531 ft 402 kts 231°
2026-05-05 19:37 50.72332 -65.65463 36537 ft 401 kts 230°
2026-05-05 19:38 50.68527 -65.71916 36530 ft 401 kts 230°
2026-05-05 19:38 50.66641 -65.75114 36245 ft 400 kts 230°
2026-05-05 19:38 50.64759 -65.78297 36396 ft 403 kts 230°
2026-05-05 19:39 50.60920 -65.84784 36497 ft 406 kts 230°
2026-05-05 19:39 50.57087 -65.91239 36518 ft 405 kts 229°
2026-05-05 19:40 50.53245 -65.97682 36547 ft 404 kts 229°
2026-05-05 19:40 50.49417 -66.04091 36536 ft 404 kts 229°
2026-05-05 19:41 50.45576 -66.10512 36528 ft 404 kts 230°
2026-05-05 19:41 50.41748 -66.16891 36524 ft 403 kts 230°
2026-05-05 19:42 50.37915 -66.23265 36513 ft 402 kts 230°
2026-05-05 19:42 50.34098 -66.29598 36529 ft 403 kts 230°
2026-05-05 19:43 50.30265 -66.35934 36525 ft 402 kts 230°
2026-05-05 19:43 50.26421 -66.42279 36519 ft 401 kts 230°
2026-05-05 19:44 50.22592 -66.48583 36530 ft 401 kts 230°
2026-05-05 19:44 50.18776 -66.54844 36535 ft 402 kts 230°
2026-05-05 19:45 50.14929 -66.61146 36537 ft 401 kts 229°
2026-05-05 19:45 50.11093 -66.67410 36539 ft 402 kts 229°
2026-05-05 19:46 50.07233 -66.73707 36520 ft 401 kts 229°
2026-05-05 19:46 50.03392 -66.79950 36524 ft 402 kts 229°
2026-05-05 19:47 49.99538 -66.86195 36519 ft 401 kts 229°
2026-05-05 19:47 49.95675 -66.92445 36502 ft 400 kts 229°
2026-05-05 19:48 49.91826 -66.98659 36517 ft 400 kts 229°
2026-05-05 19:48 49.87991 -67.04833 36516 ft 399 kts 229°
2026-05-05 19:49 49.84140 -67.11018 36511 ft 399 kts 229°
2026-05-05 19:49 49.80300 -67.17168 36499 ft 400 kts 229°
2026-05-05 19:50 49.76432 -67.23350 36516 ft 399 kts 229°
2026-05-05 19:50 49.72578 -67.29492 36500 ft 399 kts 229°
2026-05-05 19:51 49.68740 -67.35596 36501 ft 398 kts 229°
2026-05-05 19:51 49.64879 -67.41717 36496 ft 399 kts 229°
2026-05-05 19:52 49.61018 -67.47830 36482 ft 398 kts 229°
2026-05-05 19:52 49.57174 -67.53902 36488 ft 397 kts 229°
2026-05-05 19:53 49.53328 -67.59963 36481 ft 395 kts 229°
2026-05-05 19:53 49.49474 -67.66017 36492 ft 396 kts 228°
2026-05-05 19:54 49.45623 -67.72049 36488 ft 396 kts 229°
2026-05-05 19:54 49.41773 -67.78072 36491 ft 396 kts 229°
2026-05-05 19:55 49.37907 -67.84108 36487 ft 396 kts 229°
2026-05-05 19:55 49.34056 -67.90102 36485 ft 396 kts 229°
2026-05-05 19:56 49.30195 -67.96105 36484 ft 396 kts 228°
2026-05-05 19:56 49.26344 -68.02079 36504 ft 395 kts 228°
2026-05-05 19:57 49.22482 -68.08048 36512 ft 396 kts 229°
2026-05-05 19:57 49.18633 -68.14000 36504 ft 396 kts 228°
2026-05-05 19:58 49.14762 -68.19952 36501 ft 397 kts 229°
2026-05-05 19:58 49.10818 -68.25840 36500 ft 398 kts 226°
2026-05-05 19:59 49.06789 -68.31604 36505 ft 399 kts 226°
2026-05-05 19:59 49.02768 -68.37369 36500 ft 398 kts 226°
2026-05-05 20:00 48.98748 -68.43137 36490 ft 398 kts 227°
2026-05-05 20:00 48.94730 -68.48897 36482 ft 398 kts 226°
2026-05-05 20:01 48.90729 -68.54624 36490 ft 398 kts 227°
2026-05-05 20:01 48.86711 -68.60367 36484 ft 398 kts 226°
2026-05-05 20:02 48.82677 -68.66111 36488 ft 398 kts 226°
2026-05-05 20:02 48.78627 -68.71877 36504 ft 398 kts 226°
2026-05-05 20:03 48.74600 -68.77588 36482 ft 397 kts 226°
2026-05-05 20:03 48.70576 -68.83286 36477 ft 397 kts 226°
2026-05-05 20:04 48.66536 -68.88994 36498 ft 398 kts 225°
2026-05-05 20:04 48.64524 -68.91829 36599 ft 400 kts 226°
2026-05-05 20:04 48.62482 -68.94704 36879 ft 399 kts 226°
2026-05-05 20:04 48.60469 -68.97542 37151 ft 398 kts 225°
2026-05-05 20:05 48.58451 -69.00375 37366 ft 398 kts 226°
2026-05-05 20:05 48.56424 -69.03221 37470 ft 399 kts 226°
2026-05-05 20:05 48.54390 -69.06072 37485 ft 399 kts 225°
2026-05-05 20:06 48.50321 -69.11764 37494 ft 399 kts 226°
2026-05-05 20:06 48.46297 -69.17383 37501 ft 397 kts 225°
2026-05-05 20:07 48.42243 -69.23025 37481 ft 396 kts 226°
2026-05-05 20:07 48.38200 -69.28645 37494 ft 396 kts 225°
2026-05-05 20:08 48.34155 -69.34254 37494 ft 397 kts 225°
2026-05-05 20:08 48.30115 -69.39843 37530 ft 395 kts 225°
2026-05-05 20:09 48.26096 -69.45396 37504 ft 395 kts 226°
2026-05-05 20:09 48.22071 -69.50937 37505 ft 395 kts 225°
2026-05-05 20:10 48.18010 -69.56516 37513 ft 394 kts 226°
2026-05-05 20:10 48.13989 -69.62042 37523 ft 393 kts 225°
2026-05-05 20:11 48.09934 -69.67587 37500 ft 394 kts 224°
2026-05-05 20:11 48.05913 -69.73074 37515 ft 394 kts 224°
2026-05-05 20:12 48.01880 -69.78571 37514 ft 394 kts 224°
2026-05-05 20:12 47.97813 -69.84095 37543 ft 394 kts 225°
2026-05-05 20:13 47.93789 -69.89558 37535 ft 394 kts 225°
2026-05-05 20:13 47.89729 -69.95049 37531 ft 394 kts 225°
2026-05-05 20:14 47.85675 -70.00525 37559 ft 393 kts 225°
2026-05-05 20:14 47.81654 -70.05946 37553 ft 393 kts 225°
2026-05-05 20:15 47.77596 -70.11400 37531 ft 393 kts 225°
2026-05-05 20:15 47.73549 -70.16831 37524 ft 393 kts 225°
2026-05-05 20:16 47.69491 -70.22271 37528 ft 393 kts 225°
2026-05-05 20:16 47.65454 -70.27670 37557 ft 393 kts 224°
2026-05-05 20:17 47.61396 -70.33079 37538 ft 394 kts 225°
2026-05-05 20:17 47.57327 -70.38508 37560 ft 392 kts 224°
2026-05-05 20:18 47.53259 -70.43908 37533 ft 393 kts 225°
2026-05-05 20:18 47.49239 -70.49338 37536 ft 391 kts 227°
2026-05-05 20:19 47.45409 -70.55020 37542 ft 392 kts 227°
2026-05-05 20:19 47.41571 -70.60703 37553 ft 391 kts 227°
2026-05-05 20:20 47.37722 -70.66399 37550 ft 391 kts 227°
2026-05-05 20:20 47.33910 -70.72044 37560 ft 390 kts 227°
2026-05-05 20:21 47.30072 -70.77717 37560 ft 390 kts 227°
2026-05-05 20:21 47.26346 -70.83217 37560 ft 390 kts 226°
2026-05-05 20:22 47.22497 -70.88888 37557 ft 389 kts 227°
2026-05-05 20:22 47.18681 -70.94498 37560 ft 391 kts 227°
2026-05-05 20:23 47.14817 -71.00171 37557 ft 392 kts 226°
2026-05-05 20:23 47.10984 -71.05772 37550 ft 391 kts 226°
2026-05-05 20:24 47.07023 -71.11195 37544 ft 392 kts 224°
2026-05-05 20:24 47.03006 -71.16586 37545 ft 391 kts 224°
2026-05-05 20:25 46.98984 -71.21976 37550 ft 392 kts 225°
2026-05-05 20:25 46.94995 -71.27316 37577 ft 391 kts 225°
2026-05-05 20:26 46.90984 -71.32669 37575 ft 392 kts 225°
2026-05-05 20:26 46.86956 -71.38041 37582 ft 392 kts 225°
2026-05-05 20:27 46.82924 -71.43392 37578 ft 392 kts 225°
2026-05-05 20:27 46.78950 -71.48842 37574 ft 391 kts 227°
2026-05-05 20:28 46.75360 -71.54682 37576 ft 390 kts 232°
2026-05-05 20:28 46.72126 -71.61033 37576 ft 390 kts 237°
2026-05-05 20:29 46.69300 -71.67795 37569 ft 391 kts 240°
2026-05-05 20:29 46.67678 -71.72439 37585 ft 390 kts 243°
2026-05-05 20:30 46.65275 -71.80733 37579 ft 391 kts 246°
2026-05-05 20:30 46.62927 -71.89298 37578 ft 391 kts 246°
2026-05-05 20:31 46.60907 -71.96648 37577 ft 391 kts 246°
2026-05-05 20:31 46.58895 -72.03973 37568 ft 391 kts 246°
2026-05-05 20:32 46.57555 -72.08840 37576 ft 391 kts 246°
2026-05-05 20:32 46.54857 -72.18575 37568 ft 390 kts 246°
2026-05-05 20:33 46.52795 -72.25853 37574 ft 390 kts 246°
2026-05-05 20:33 46.50736 -72.33106 37577 ft 390 kts 246°
2026-05-05 20:34 46.48675 -72.40364 37575 ft 389 kts 246°
2026-05-05 20:34 46.46615 -72.47599 37585 ft 389 kts 246°
2026-05-05 20:35 46.44544 -72.54835 37587 ft 389 kts 246°
2026-05-05 20:35 46.42477 -72.62019 37587 ft 388 kts 246°
2026-05-05 20:36 46.40414 -72.69184 37580 ft 388 kts 246°
2026-05-05 20:36 46.38351 -72.76353 37577 ft 387 kts 246°
2026-05-05 20:37 46.36329 -72.83353 37576 ft 387 kts 246°
2026-05-05 20:37 46.34245 -72.90565 36637 ft 393 kts 247°
2026-05-05 20:37 46.33206 -72.94190 36123 ft 393 kts 247°
2026-05-05 20:38 46.32167 -72.97820 35622 ft 392 kts 247°
2026-05-05 20:38 46.31136 -73.01430 35091 ft 392 kts 248°
2026-05-05 20:38 46.30101 -73.05046 34523 ft 392 kts 247°
2026-05-05 20:38 46.29054 -73.08707 33925 ft 391 kts 247°
2026-05-05 20:39 46.28031 -73.12276 33368 ft 389 kts 247°
2026-05-05 20:39 46.26998 -73.15874 32900 ft 388 kts 247°
2026-05-05 20:39 46.25957 -73.19482 32276 ft 390 kts 247°
2026-05-05 20:39 46.24918 -73.23070 31701 ft 392 kts 247°
2026-05-05 20:40 46.23860 -73.26717 31133 ft 393 kts 248°
2026-05-05 20:40 46.22796 -73.30388 30547 ft 405 kts 247°
2026-05-05 20:40 46.21712 -73.34119 30099 ft 400 kts 247°
2026-05-05 20:40 46.20653 -73.37753 29615 ft 393 kts 246°
2026-05-05 20:41 46.19594 -73.41344 29230 ft 386 kts 246°
2026-05-05 20:41 46.18549 -73.44865 28740 ft 381 kts 246°
2026-05-05 20:41 46.17513 -73.48352 28221 ft 378 kts 246°
2026-05-05 20:41 46.16479 -73.51836 27853 ft 376 kts 246°
2026-05-05 20:42 46.15453 -73.55298 27456 ft 376 kts 245°
2026-05-05 20:42 46.14427 -73.58741 27110 ft 372 kts 246°
2026-05-05 20:42 46.13420 -73.62128 26735 ft 371 kts 246°
2026-05-05 20:42 46.12399 -73.65562 26338 ft 369 kts 245°
2026-05-05 20:43 46.11354 -73.68864 25939 ft 366 kts 238°
2026-05-05 20:43 46.09755 -73.71663 25556 ft 362 kts 226°
2026-05-05 20:43 46.08026 -73.74327 25189 ft 361 kts 228°
2026-05-05 20:43 46.06351 -73.77007 24826 ft 360 kts 229°
2026-05-05 20:44 46.04720 -73.79651 24465 ft 358 kts 228°
2026-05-05 20:44 46.03076 -73.82319 24103 ft 356 kts 228°
2026-05-05 20:44 46.01436 -73.84978 23805 ft 353 kts 228°
2026-05-05 20:44 45.99807 -73.87629 23497 ft 350 kts 228°
2026-05-05 20:45 45.96611 -73.92802 22686 ft 347 kts 229°
2026-05-05 20:45 45.95012 -73.95391 22303 ft 346 kts 228°
2026-05-05 20:45 45.93430 -73.97956 21974 ft 343 kts 228°
2026-05-05 20:46 45.91837 -74.00532 21597 ft 342 kts 228°
2026-05-05 20:46 45.90274 -74.03059 21236 ft 339 kts 228°
2026-05-05 20:46 45.88707 -74.05584 20856 ft 338 kts 229°
2026-05-05 20:46 45.87138 -74.08120 20511 ft 335 kts 229°
2026-05-05 20:47 45.85612 -74.10583 20142 ft 334 kts 229°
2026-05-05 20:47 45.84091 -74.13040 19805 ft 332 kts 229°
2026-05-05 20:47 45.82558 -74.15507 19447 ft 330 kts 229°
2026-05-05 20:47 45.81023 -74.17977 19087 ft 328 kts 229°
2026-05-05 20:48 45.79514 -74.20407 18717 ft 326 kts 230°
2026-05-05 20:48 45.78026 -74.22794 18377 ft 323 kts 230°
2026-05-05 20:48 45.76543 -74.25176 18048 ft 321 kts 229°
2026-05-05 20:48 45.75068 -74.27543 17704 ft 318 kts 229°
2026-05-05 20:49 45.73591 -74.29906 17358 ft 316 kts 230°
2026-05-05 20:49 45.72127 -74.32251 17035 ft 314 kts 230°
2026-05-05 20:49 45.70697 -74.34541 16685 ft 311 kts 230°
2026-05-05 20:49 45.69261 -74.36834 16343 ft 309 kts 231°
2026-05-05 20:50 45.67834 -74.39126 15989 ft 306 kts 230°
2026-05-05 20:50 45.66884 -74.40641 15768 ft 305 kts 230°
2026-05-05 20:50 45.65010 -74.43630 15340 ft 301 kts 230°
2026-05-05 20:50 45.64079 -74.45111 15111 ft 300 kts 230°
2026-05-05 20:51 45.62295 -74.48097 14662 ft 296 kts 236°
2026-05-05 20:51 45.61277 -74.50617 14323 ft 294 kts 245°
2026-05-05 20:51 45.60603 -74.53391 13985 ft 294 kts 254°
2026-05-05 20:51 45.60195 -74.56232 13692 ft 291 kts 256°
2026-05-05 20:52 45.59819 -74.59013 13403 ft 285 kts 256°
2026-05-05 20:52 45.59453 -74.61781 13102 ft 280 kts 257°
2026-05-05 20:52 45.59096 -74.64479 12832 ft 275 kts 255°
2026-05-05 20:52 45.58747 -74.67144 12552 ft 270 kts 256°
2026-05-05 20:53 45.58406 -74.69737 12289 ft 266 kts 255°
2026-05-05 20:53 45.58072 -74.72298 12029 ft 262 kts 255°
2026-05-05 20:53 45.57743 -74.74812 11522 ft 253 kts 255°
2026-05-05 20:53 45.57436 -74.77186 11217 ft 237 kts 255°
2026-05-05 20:54 45.57140 -74.79452 11101 ft 230 kts 255°
2026-05-05 20:54 45.56840 -74.81702 10903 ft 231 kts 255°
2026-05-05 20:54 45.56545 -74.83934 10677 ft 229 kts 255°
2026-05-05 20:54 45.56244 -74.86194 10364 ft 229 kts 255°
2026-05-05 20:55 45.55942 -74.88379 10267 ft 223 kts 252°
2026-05-05 20:55 45.55450 -74.90502 10208 ft 224 kts 246°
2026-05-05 20:55 45.54775 -74.92489 10157 ft 224 kts 241°
2026-05-05 20:55 45.53969 -74.94370 10101 ft 223 kts 239°
2026-05-05 20:56 45.53136 -74.96259 10055 ft 222 kts 239°
2026-05-05 20:56 45.52314 -74.98120 9804 ft 225 kts 239°
2026-05-05 20:56 45.51484 -74.99995 9491 ft 225 kts 239°
2026-05-05 20:56 45.50644 -75.01884 9198 ft 224 kts 239°
2026-05-05 20:57 45.49812 -75.03752 8911 ft 223 kts 239°
2026-05-05 20:57 45.48991 -75.05596 8636 ft 222 kts 239°
2026-05-05 20:57 45.48436 -75.06834 8458 ft 221 kts 239°
2026-05-05 20:57 45.47339 -75.09286 8104 ft 219 kts 240°
2026-05-05 20:58 45.46518 -75.11125 7848 ft 218 kts 240°
2026-05-05 20:58 45.45706 -75.12937 7586 ft 217 kts 240°
2026-05-05 20:58 45.44900 -75.14741 7327 ft 216 kts 240°
2026-05-05 20:58 45.44096 -75.16534 7072 ft 215 kts 240°
2026-05-05 20:59 45.43296 -75.18316 6817 ft 214 kts 240°
2026-05-05 20:59 45.42493 -75.20109 6571 ft 213 kts 240°
2026-05-05 20:59 45.41705 -75.21864 6321 ft 212 kts 240°
2026-05-05 20:59 45.40915 -75.23619 6077 ft 211 kts 240°
2026-05-05 21:00 45.40116 -75.25389 5840 ft 211 kts 240°
2026-05-05 21:00 45.39331 -75.27128 5601 ft 211 kts 240°
2026-05-05 21:00 45.38542 -75.28880 5351 ft 211 kts 240°
2026-05-05 21:00 45.37746 -75.30643 5112 ft 210 kts 241°
2026-05-05 21:01 45.36961 -75.32380 5019 ft 204 kts 241°
2026-05-05 21:01 45.36203 -75.34059 5015 ft 201 kts 241°
2026-05-05 21:01 45.35442 -75.35742 5017 ft 208 kts 241°
2026-05-05 21:01 45.34640 -75.37518 4860 ft 214 kts 240°
2026-05-05 21:02 45.33564 -75.38998 4566 ft 225 kts 213°
2026-05-05 21:02 45.32018 -75.39512 4308 ft 239 kts 184°
2026-05-05 21:02 45.30334 -75.39253 4097 ft 241 kts 181°
2026-05-05 21:02 45.28706 -75.38968 4094 ft 229 kts 183°
2026-05-05 21:03 45.27234 -75.39232 4024 ft 205 kts 213°
2026-05-05 21:03 45.26070 -75.40310 3821 ft 198 kts 224°
2026-05-05 21:03 45.24974 -75.41494 3593 ft 198 kts 224°
2026-05-05 21:03 45.23868 -75.42683 3379 ft 197 kts 224°
2026-05-05 21:04 45.22790 -75.43834 3188 ft 196 kts 225°
2026-05-05 21:04 45.22038 -75.45322 3040 ft 180 kts 261°
2026-05-05 21:04 45.22094 -75.47001 3040 ft 167 kts 283°
2026-05-05 21:04 45.22329 -75.48019 3026 ft 162 kts 291°
2026-05-05 21:05 45.23045 -75.49918 2969 ft 164 kts 299°
2026-05-05 21:05 45.23689 -75.51244 2785 ft 163 kts 301°
2026-05-05 21:05 45.24360 -75.52541 2565 ft 162 kts 302°
2026-05-05 21:05 45.25026 -75.53814 2343 ft 161 kts 301°
2026-05-05 21:06 45.25468 -75.54663 2194 ft 159 kts 301°
2026-05-05 21:06 45.26312 -75.56286 1915 ft 148 kts 301°
2026-05-05 21:06 45.26909 -75.57438 1715 ft 141 kts 300°
2026-05-05 21:06 45.27488 -75.58562 1542 ft 140 kts 301°
2026-05-05 21:07 45.27870 -75.59301 1428 ft 140 kts 299°
2026-05-05 21:07 45.28639 -75.60788 1197 ft 140 kts 300°
2026-05-05 21:07 45.29215 -75.61897 1016 ft 139 kts 300°
2026-05-05 21:07 45.29789 -75.62996 838 ft 139 kts 302°
2026-05-05 21:08 45.30368 -75.64111 631 ft 139 kts 301°
2026-05-05 21:08 45.30930 -75.65198 445 ft 136 kts 301°
2026-05-05 21:08 45.31467 -75.66247 376 ft 115 kts 304°
2026-05-05 21:08 45.31706 -75.66707 384 ft 57 kts 308°
2026-05-05 21:09 45.31913 -75.67107 387 ft 27 kts 304°
2026-05-05 21:09 45.31970 -75.67213 387 ft 16 kts 308°
2026-05-05 21:09 45.32054 -75.67261 387 ft 9 kts 32°
2026-05-05 21:09 45.32099 -75.67208 387 ft 0 kts 43°
2026-05-05 21:10 45.32106 -75.67199 387 ft 3 kts 42°
2026-05-05 21:10 45.32134 -75.67162 387 ft 7 kts 43°
2026-05-05 21:11 45.32176 -75.67094 385 ft 10 kts 66°
2026-05-05 21:11 45.32158 -75.66996 384 ft 12 kts 129°
2026-05-05 21:11 45.32103 -75.66895 384 ft 13 kts 126°
2026-05-05 21:11 45.32045 -75.66785 384 ft 14 kts 126°
2026-05-05 21:12 45.31986 -75.66669 384 ft 9 kts 122°
2026-05-05 21:12 45.31999 -75.66623 383 ft 7 kts 36°
2026-05-05 21:12 45.32033 -75.66588 382 ft 3 kts 36°
2026-05-05 21:12 45.32042 -75.66578 382 ft 0 kts 38°
2026-05-05 21:13 45.32043 -75.66577 382 ft 0 kts 37°